Location: Daerah Kuala Lumpur
(3.1167°N, 101.6833°E)
Time: 14:39:16
(UTC+00:00)

ARIANE 6 FM1 Upper Stage - Pass Details

Date: 24 February 2026
Orbit: 523 x 607 km, 62.0° (Epoch: 14 March)

Event Time Altitude Azimuth Distance (km) Brightness Sun altitude
Rises 13:02:35 0° 309° (NW) 2,679 6.7 -24.2°
Reaches altitude 10° 13:05:14 10° 291° (WNW) 1,805 6.0 -24.9°
Maximum altitude 13:08:09 19° 245° (WSW) 1,343 5.3 -25.6°
Drops below altitude 10° 13:11:08 10° 199° (SSW) 1,846 5.6 -26.3°
Sets 13:13:54 0° 181° (S) 2,762 6.3 -27.0°
